• MPC Preparation (Info)

  • MPEC 2018-U34 : 2018 TR6

    The following Minor Planet Electronic Circular may be linked-to from your own Web pages, but must not otherwise be redistributed electronically.

    A form allowing access to any MPEC is at the bottom of this page.


    Read MPEC 2018-U33 Read MPEC 2018-U35


    M.P.E.C. 2018-U34                                Issued 2018 Oct. 20, 21:45 UT
    
         The Minor Planet Electronic Circulars contain information on unusual
             minor planets and routine data on comets.  They are published
        on behalf of Division F of the International Astronomical Union by the
              Minor Planet Center, Smithsonian Astrophysical Observatory,
                              Cambridge, MA 02138, U.S.A.
    
                 Prepared using the Tamkin Foundation Computer Network
    
                                  MPC@CFA.HARVARD.EDU
                URL https://www.minorplanetcenter.net/    ISSN 1523-6714
    
                                       2018 TR6
    
    Observations:
         K18T06R* C2018 10 15.62393 03 13 40.893+27 28 37.59         21.7 wUEU034F52
         K18T06R  C2018 10 15.62882 03 13 41.431+27 28 42.01         21.6 wUEU034F52
         K18T06R  C2018 10 15.63368 03 13 41.993+27 28 46.20         21.3 wUEU034F52
         K18T06R KC2018 10 18.45544 03 19 17.53 +28 10 16.4          21.6 RoEU034291
         K18T06R KC2018 10 18.47004 03 19 18.90 +28 10 27.5          21.8 RoEU034291
         K18T06R KC2018 10 20.12462003 22 18.15 +28 31 48.2          21.7 GVEU034L01
         K18T06R KC2018 10 20.12715703 22 18.43 +28 31 49.1          21.6 GVEU034L01
         K18T06R KC2018 10 20.13131203 22 18.80 +28 31 52.3          21.6 GVEU034L01
    
    Observer details:
    291 LPL/Spacewatch II.  Observer R. A. Mastaler.  1.8-m f/2.7 reflector + CCD.
    F52 Pan-STARRS 2, Haleakala.  Observers J. Bulger, T. Dukes, T. Lowe,
        A. Schultz, M. Willman.  Measurers K. Chambers, S. Chastel, L. Denneau,
        H. Flewelling, M. Huber, E. Magnier, Y. Ramanjooloo, R. Wainscoat,
        C. Waters, R. Weryk.  1.8-m Ritchey-Chretien + CCD.
    L01 Visnjan Observatory, Tican.  Observer K. Korlevic.  1.0-m f/2.9 reflector
        + CCD.
    
    Orbital elements:
    2018 TR6                                                 Earth MOID = 0.1484 AU
    Epoch 2019 Apr. 27.0 TT = JDT 2458600.5                 MPC
    M  75.84590              (2000.0)            P               Q
    n   0.37228283     Peri.   33.82071     +0.95759713     -0.28791934
    a   1.9137596      Node   342.90340     +0.25580168     +0.86641018
    e   0.4010177      Incl.    2.04616     +0.13256406     +0.40796550
    P   2.65           H   23.9           G   0.15           U   9
    Residuals in seconds of arc
    181015 F52  0.1-  0.2-    181018 291  0.1+  0.0     181020 L01  0.3+  0.5-
    181015 F52  0.1-  0.1+    181018 291  0.2-  0.1+    181020 L01  0.2+  0.1-
    181015 F52  0.3+  0.1+    181020 L01  0.3-  0.4+
    
    Ephemeris:
    2018 TR6                 a,e,i = 1.91, 0.40, 2                   q = 1.1463
    Date    TT    R. A. (2000) Decl.     Delta      r     Elong.  Phase     V
    2018 09 20    02 01 09.4 +16 51 20   0.1852  1.1568   142.5    31.9    21.9
    ...
    2018 10 05    02 47 35.5 +23 56 18   0.1748  1.1464   144.1    30.8    21.7
    ...
    2018 10 13    03 07 59.8 +26 44 21   0.1766  1.1491   146.4    28.8    21.7
    ...
    2018 10 19    03 20 19.3 +28 17 40   0.1809  1.1548   148.9    26.5    21.7
    2018 10 20    03 22 06.6 +28 30 31   0.1819  1.1561   149.4    26.0    21.7
    2018 10 21    03 23 49.2 +28 42 37   0.1829  1.1575   149.9    25.6    21.7
    ...
    2018 10 27    03 32 28.2 +29 39 52   0.1905  1.1673   153.4    22.5    21.7
    ...
    2018 11 04    03 39 55.7 +30 18 25   0.2047  1.1851   158.8    17.6    21.7
    ...
    2018 11 19    03 45 19.8 +30 00 22   0.2460  1.2308   169.1     8.7    21.9
    
    A. U. Tomatic                (C) Copyright 2018 MPC           M.P.E.C. 2018-U34
    

    Read MPEC 2018-U33 Read MPEC 2018-U35


    MPEC number:

    Enter an MPEC number in one of the following forms:

    • 1997-B01 (the full form)
    • J97B01 (the packed version of the full form)
    • B01 (the abbreviated form)